Regional Weather Roundup
Issued by NWS

Home | Current Version | Previous Version | Text Only | Print | Product List | Glossary Off
Versions: 1 2 3 4 5 6 7 8 9 10 11 12 13 14 15 16 17 18 19 20 21 22 23 24 25 26 27 28 29 30 31 32 33 34 35 36 37 38 39 40 41 42 43 44 45 46 47 48 49 50

000
ASUS43 KOAX 180410
RWRNE

WEATHER ROUNDUP FOR NEBRASKA
NATIONAL WEATHER SERVICE OMAHA NE
1000 PM CST SUN DEC 17 2017

NOTES: SATELLITE DATA IS BEING USED TO AUGMENT CLOUD COVER ABOVE
       12000 FEET.
       "FAIR" INDICATES FEW OR NO CLOUDS BELOW 12,000 FEET WITH NO
       SIGNIFICANT WEATHER AND/OR OBSTRUCTIONS TO VISIBILITY.


NEZ001>004-019>022-054>056-180500-
NEBRASKA PANHANDLE

CITY           SKY/WX    TMP DP  RH WIND       PRES   REMARKS
SCOTTSBLUFF    CLOUDY    24  13  62 NW5       29.92F WCI  18
ALLIANCE       CLOUDY    15  11  83 W10       29.89S WCI   2
CHADRON        CLEAR     31  17  56 W10       29.90S WCI  22
GORDON         FAIR      32  20  62 W9        29.85S WCI  24
KIMBALL        CLOUDY    24  21  90 W10       29.94S WCI  13
SIDNEY         CLEAR     24  21  88 W10       29.95R WCI  14
$$

NEZ057>060-069>072-079>082-180500-
SOUTHWEST NEBRASKA

CITY           SKY/WX    TMP DP  RH WIND       PRES   REMARKS
NORTH PLATTE   CLEAR     30  27  88 S7        29.96S WCI  23
IMPERIAL       CLEAR     26  23  88 SW8       29.98S WCI  18
LEXINGTON      CLOUDY    26  24  90 S6        29.99S WCI  20
MCCOOK         CLEAR     27  25  92 SW9       30.00F WCI  18
OGALLALA       CLEAR     20  17  90 SW8       29.95S WCI  10
$$

NEZ005>010-023>029-035>040-094-180500-
NORTH CENTRAL NEBRASKA

CITY           SKY/WX    TMP DP  RH WIND       PRES   REMARKS
VALENTINE      CLEAR     33  28  81 SW14      29.85F WCI  23
AINSWORTH      CLEAR     32  31  96 S13       29.88F WCI  22
BROKEN BOW     CLEAR     28  24  85 S3        29.95S
O`NEILL        CLEAR     31  28  91 S9        29.92F WCI  22
ORD            CLEAR     24  23  96 SW7       29.95F WCI  16
THEDFORD       CLEAR     31  29  93 S9        29.90F WCI  23
$$

NEZ041-046>049-061>064-073>077-083>087-180500-
SOUTH CENTRAL NEBRASKA

CITY           SKY/WX    TMP DP  RH WIND       PRES   REMARKS
GRAND ISLAND   CLOUDY    26  24  92 SW5       30.01R WCI  20
AURORA         CLOUDY    24  23  94 SW5       30.01R WCI  19
HASTINGS       CLOUDY    28  25  88 SW5       30.01S WCI  23
HEBRON         CLOUDY    27  25  91 W5        30.02S WCI  22
HOLDREGE       CLOUDY    28  27  95 SW6       30.00S WCI  22
KEARNEY        CLOUDY    28  26  92 SW6       30.00F WCI  22
YORK           CLOUDY    25  25 100 SW5       30.01S WCI  19
$$

NEZ011>018-030>034-042>045-180500-
NORTHEAST NEBRASKA

CITY           SKY/WX    TMP DP  RH WIND       PRES   REMARKS
NORFOLK        CLOUDY    22  20  92 CALM      29.96F
ALBION         CLEAR     31  27  82 S3        29.97F
BLAIR          PTCLDY    30  27  90 CALM      30.00R FOG
COLUMBUS       CLOUDY    22  19  89 CALM      30.01R
FREMONT        CLOUDY    26  25  94 CALM      30.00F FOG
TEKAMAH        CLOUDY    23  17  78 S6        30.00F WCI  16
WAYNE          CLOUDY    19  18  96 S5        29.97F WCI  12
$$

NEZ050>053-065>068-078-088>093-180500-
SOUTHEAST NEBRASKA

CITY           SKY/WX    TMP DP  RH WIND       PRES   REMARKS
LINCOLN        CLOUDY    32  29  88 CALM      30.03S FOG
OMAHA EPPLEY   MOCLDY    29  24  82 CALM      30.02S
BEATRICE       PTCLDY    29  28  96 CALM      30.00F FOG
FALLS CITY     CLOUDY    36  35  96 CALM      30.01F FOG
NEBRASKA CITY  CLOUDY    29  29 100 SW5       30.01S FOG     WCI  24
PLATTSMOUTH    CLOUDY    31  28  90 SW3       30.00F
$$

NEZ044-045-051>053-067-180500-
OMAHA AREA

CITY           SKY/WX    TMP DP  RH WIND       PRES   REMARKS
OMAHA EPPLEY   MOCLDY    29  24  82 CALM      30.02S
BLAIR          PTCLDY    30  27  90 CALM      30.00R FOG
FREMONT        CLOUDY    26  25  94 CALM      30.00F FOG
MILLARD        PTCLDY    31  28  88 CALM      30.02R
OFFUTT AFB     CLOUDY    28  25  90 CALM      30.01S
PLATTSMOUTH    CLOUDY    31  28  90 SW3       30.00F
WAHOO          FAIR      28  25  88 CALM      30.02R
$$




USA.gov is the U.S. government's official web portal to all federal, state and local government web resources and services.